Time,TemperatureF,DewpointF,PressureIn,WindDirection,WindDirectionDegrees,WindSpeedMPH,WindSpeedGustMPH,Humidity,HourlyPrecipIn,Conditions,Clouds,dailyrainin,SolarRadiationWatts/m^2,SoftwareType,DateUTC
2013-05-15 00:05:00,51.9,30.6,29.65,WNW,296,2.0,3.0,44,0.00,,,0.00,0,Wunderground v.1.15,2013-05-15 06:05:00,
2013-05-15 00:10:00,51.8,30.6,29.65,WNW,296,3.0,3.0,44,0.00,,,0.00,0,Wunderground v.1.15,2013-05-15 06:10:00,
2013-05-15 00:15:00,51.6,30.4,29.65,WNW,296,3.0,4.0,44,0.00,,,0.00,0,Wunderground v.1.15,2013-05-15 06:15:00,
2013-05-15 00:20:00,51.4,30.7,29.65,WNW,299,4.0,4.0,45,0.00,,,0.00,0,Wunderground v.1.15,2013-05-15 06:20:00,
2013-05-15 00:25:00,51.3,30.1,29.66,WNW,289,4.0,4.0,44,0.00,,,0.00,0,Wunderground v.1.15,2013-05-15 06:25:00,
2013-05-15 00:30:00,51.3,30.1,29.66,WNW,295,3.0,3.0,44,0.00,,,0.00,0,Wunderground v.1.15,2013-05-15 06:30:00,
2013-05-15 00:35:00,51.3,30.1,29.66,WNW,295,1.0,3.0,44,0.00,,,0.00,0,Wunderground v.1.15,2013-05-15 06:35:00,
2013-05-15 00:40:00,51.2,30.0,29.66,WNW,295,1.0,1.0,44,0.00,,,0.00,0,Wunderground v.1.15,2013-05-15 06:40:00,
2013-05-15 00:50:00,51.1,30.5,29.67,WNW,295,2.0,2.0,45,0.00,,,0.00,0,Wunderground v.1.15,2013-05-15 06:50:00,
2013-05-15 00:55:00,51.0,30.4,29.66,WNW,295,2.0,2.0,45,0.00,,,0.00,0,Wunderground v.1.15,2013-05-15 06:55:00,
2013-05-15 01:05:00,50.3,29.7,29.66,WNW,295,1.0,3.0,45,0.00,,,0.00,0,Wunderground v.1.15,2013-05-15 07:05:00,
2013-05-15 01:10:00,50.1,30.1,29.67,WNW,295,1.0,1.0,46,0.00,,,0.00,0,Wunderground v.1.15,2013-05-15 07:10:00,
2013-05-15 01:15:00,49.9,29.9,29.67,WNW,295,1.0,1.0,46,0.00,,,0.00,0,Wunderground v.1.15,2013-05-15 07:15:00,
2013-05-15 01:20:00,49.7,29.7,29.67,WNW,295,2.0,2.0,46,0.00,,,0.00,0,Wunderground v.1.15,2013-05-15 07:20:00,
2013-05-15 01:25:00,49.5,30.1,29.68,WNW,295,3.0,3.0,47,0.00,,,0.00,0,Wunderground v.1.15,2013-05-15 07:25:00,
2013-05-15 01:30:00,49.2,29.8,29.68,WNW,295,2.0,2.0,47,0.00,,,0.00,0,Wunderground v.1.15,2013-05-15 07:30:00,
2013-05-15 01:40:00,49.0,30.1,29.68,WNW,295,2.0,2.0,48,0.00,,,0.00,0,Wunderground v.1.15,2013-05-15 07:40:00,
2013-05-15 01:45:00,48.8,30.0,29.68,WNW,295,1.0,2.0,48,0.00,,,0.00,0,Wunderground v.1.15,2013-05-15 07:45:00,
2013-05-15 01:50:00,48.5,29.7,29.68,WNW,295,1.0,3.0,48,0.00,,,0.00,0,Wunderground v.1.15,2013-05-15 07:50:00,
2013-05-15 01:55:00,48.3,29.5,29.68,WNW,295,2.0,3.0,48,0.00,,,0.00,0,Wunderground v.1.15,2013-05-15 07:55:00,
2013-05-15 02:00:00,48.1,29.3,29.68,WNW,295,1.0,1.0,48,0.00,,,0.00,0,Wunderground v.1.15,2013-05-15 08:00:00,
2013-05-15 02:10:00,47.8,29.5,29.68,WNW,295,0.0,0.0,49,0.00,,,0.00,0,Wunderground v.1.15,2013-05-15 08:10:00,
2013-05-15 02:15:00,47.7,29.5,29.68,WNW,295,0.0,0.0,49,0.00,,,0.00,0,Wunderground v.1.15,2013-05-15 08:15:00,
2013-05-15 02:20:00,47.6,29.9,29.68,WNW,295,0.0,0.0,50,0.00,,,0.00,0,Wunderground v.1.15,2013-05-15 08:20:00,
2013-05-15 02:30:00,47.2,29.5,29.68,WNW,295,0.0,0.0,50,0.00,,,0.00,0,Wunderground v.1.15,2013-05-15 08:30:00,
2013-05-15 02:35:00,47.0,29.8,29.68,WNW,295,1.0,1.0,51,0.00,,,0.00,0,Wunderground v.1.15,2013-05-15 08:35:00,
2013-05-15 02:45:00,46.7,30.0,29.68,WNW,295,2.0,2.0,52,0.00,,,0.00,0,Wunderground v.1.15,2013-05-15 08:45:00,
2013-05-15 02:50:00,46.4,30.2,29.68,WNW,295,2.0,3.0,53,0.00,,,0.00,0,Wunderground v.1.15,2013-05-15 08:50:00,
2013-05-15 02:55:00,46.1,30.4,29.68,WNW,295,3.0,3.0,54,0.00,,,0.00,0,Wunderground v.1.15,2013-05-15 08:55:00,
2013-05-15 03:05:00,45.7,30.0,29.69,WNW,295,1.0,2.0,54,0.00,,,0.00,0,Wunderground v.1.15,2013-05-15 09:05:00,
2013-05-15 03:10:00,45.5,29.3,29.69,WNW,295,1.0,1.0,53,0.00,,,0.00,0,Wunderground v.1.15,2013-05-15 09:10:00,
2013-05-15 03:15:00,45.4,29.3,29.69,WNW,295,1.0,1.0,53,0.00,,,0.00,0,Wunderground v.1.15,2013-05-15 09:15:00,
2013-05-15 03:20:00,45.3,29.6,29.69,WNW,295,0.0,0.0,54,0.00,,,0.00,0,Wunderground v.1.15,2013-05-15 09:20:00,
2013-05-15 03:30:00,45.1,30.3,29.69,WNW,295,0.0,0.0,56,0.00,,,0.00,0,Wunderground v.1.15,2013-05-15 09:30:00,
2013-05-15 03:35:00,45.0,29.3,29.69,WNW,295,1.0,2.0,54,0.00,,,0.00,0,Wunderground v.1.15,2013-05-15 09:35:00,
2013-05-15 03:40:00,45.0,29.3,29.69,WNW,295,1.0,1.0,54,0.00,,,0.00,0,Wunderground v.1.15,2013-05-15 09:40:00,
2013-05-15 03:45:00,44.9,29.2,29.69,WNW,295,2.0,2.0,54,0.00,,,0.00,0,Wunderground v.1.15,2013-05-15 09:45:00,
2013-05-15 03:55:00,44.9,29.7,29.69,WNW,295,1.0,2.0,55,0.00,,,0.00,0,Wunderground v.1.15,2013-05-15 09:55:00,
2013-05-15 04:00:00,44.9,30.1,29.69,WNW,295,1.0,1.0,56,0.00,,,0.00,0,Wunderground v.1.15,2013-05-15 10:00:00,
2013-05-15 04:10:00,44.6,30.3,29.69,WNW,295,1.0,1.0,57,0.00,,,0.00,0,Wunderground v.1.15,2013-05-15 10:10:00,
2013-05-15 04:15:00,44.5,30.2,29.69,WNW,295,0.0,1.0,57,0.00,,,0.00,0,Wunderground v.1.15,2013-05-15 10:15:00,
2013-05-15 04:20:00,44.4,30.1,29.69,WNW,295,0.0,0.0,57,0.00,,,0.00,0,Wunderground v.1.15,2013-05-15 10:20:00,
2013-05-15 04:30:00,44.1,29.8,29.70,WNW,295,1.0,2.0,57,0.00,,,0.00,0,Wunderground v.1.15,2013-05-15 10:30:00,
2013-05-15 04:40:00,43.8,30.0,29.70,WNW,295,1.0,1.0,58,0.00,,,0.00,0,Wunderground v.1.15,2013-05-15 10:40:00,
2013-05-15 04:45:00,43.6,29.8,29.70,WNW,295,1.0,3.0,58,0.00,,,0.00,0,Wunderground v.1.15,2013-05-15 10:45:00,
2013-05-15 04:50:00,43.4,29.6,29.71,WNW,295,2.0,3.0,58,0.00,,,0.00,0,Wunderground v.1.15,2013-05-15 10:50:00,
2013-05-15 05:00:00,43.6,29.4,29.71,WNW,295,2.0,2.0,57,0.00,,,0.00,0,Wunderground v.1.15,2013-05-15 11:00:00,
2013-05-15 05:05:00,43.7,30.3,29.71,WNW,295,1.0,2.0,59,0.00,,,0.00,0,Wunderground v.1.15,2013-05-15 11:05:00,
2013-05-15 05:20:00,43.2,30.2,29.71,WNW,295,1.0,1.0,60,0.00,,,0.00,0,Wunderground v.1.15,2013-05-15 11:20:00,
2013-05-15 05:30:00,43.2,30.2,29.71,WNW,295,0.0,0.0,60,0.00,,,0.00,0,Wunderground v.1.15,2013-05-15 11:30:00,
2013-05-15 05:35:00,43.2,30.6,29.71,WNW,295,0.0,1.0,61,0.00,,,0.00,0,Wunderground v.1.15,2013-05-15 11:35:00,
2013-05-15 05:40:00,43.1,30.6,29.72,WNW,295,1.0,1.0,61,0.00,,,0.00,0,Wunderground v.1.15,2013-05-15 11:40:00,
2013-05-15 05:45:00,42.9,30.8,29.72,WNW,295,2.0,3.0,62,0.00,,,0.00,0,Wunderground v.1.15,2013-05-15 11:45:00,
2013-05-15 05:50:00,43.1,30.1,29.72,WNW,295,2.0,2.0,60,0.00,,,0.00,5,Wunderground v.1.15,2013-05-15 11:50:00,
2013-05-15 05:55:00,43.1,30.1,29.72,WNW,295,1.0,2.0,60,0.00,,,0.00,7,Wunderground v.1.15,2013-05-15 11:55:00,
2013-05-15 06:00:00,43.1,30.1,29.72,WNW,295,0.0,2.0,60,0.00,,,0.00,12,Wunderground v.1.15,2013-05-15 12:00:00,
2013-05-15 06:05:00,43.0,30.5,29.72,WNW,295,1.0,2.0,61,0.00,,,0.00,16,Wunderground v.1.15,2013-05-15 12:05:00,
2013-05-15 06:15:00,42.9,30.4,29.73,WNW,295,0.0,1.0,61,0.00,,,0.00,16,Wunderground v.1.15,2013-05-15 12:15:00,
2013-05-15 06:20:00,42.9,30.4,29.72,WNW,295,0.0,0.0,61,0.00,,,0.00,18,Wunderground v.1.15,2013-05-15 12:20:00,
2013-05-15 06:30:00,42.9,30.4,29.73,WNW,295,0.0,0.0,61,0.00,,,0.00,19,Wunderground v.1.15,2013-05-15 12:30:00,
2013-05-15 06:35:00,42.9,30.4,29.73,WNW,295,0.0,0.0,61,0.00,,,0.00,19,Wunderground v.1.15,2013-05-15 12:35:00,
2013-05-15 06:50:00,43.1,31.4,29.73,WNW,295,0.0,0.0,63,0.00,,,0.00,23,Wunderground v.1.15,2013-05-15 12:50:00,
2013-05-15 07:00:00,43.2,31.8,29.73,WNW,295,0.0,0.0,64,0.00,,,0.00,25,Wunderground v.1.15,2013-05-15 13:00:00,
2013-05-15 07:10:00,43.4,32.4,29.73,WNW,295,0.0,0.0,65,0.00,,,0.00,26,Wunderground v.1.15,2013-05-15 13:10:00,
2013-05-15 07:15:00,43.6,32.6,29.73,WNW,295,0.0,0.0,65,0.00,,,0.00,26,Wunderground v.1.15,2013-05-15 13:15:00,
2013-05-15 07:20:00,43.7,33.1,29.73,WNW,295,0.0,1.0,66,0.00,,,0.00,28,Wunderground v.1.15,2013-05-15 13:20:00,
2013-05-15 07:30:00,44.1,33.1,29.73,WNW,295,0.0,0.0,65,0.00,,,0.00,28,Wunderground v.1.15,2013-05-15 13:30:00,
2013-05-15 07:35:00,44.4,33.7,29.73,WNW,295,0.0,0.0,66,0.00,,,0.00,30,Wunderground v.1.15,2013-05-15 13:35:00,
2013-05-15 07:40:00,44.7,34.4,29.73,WNW,295,1.0,1.0,67,0.00,,,0.00,30,Wunderground v.1.15,2013-05-15 13:40:00,
2013-05-15 07:50:00,45.6,35.3,29.73,WNW,295,1.0,3.0,67,0.00,,,0.00,32,Wunderground v.1.15,2013-05-15 13:50:00,
2013-05-15 07:55:00,46.1,35.4,29.73,WNW,296,2.0,3.0,66,0.00,,,0.00,32,Wunderground v.1.15,2013-05-15 13:55:00,
2013-05-15 08:00:00,46.4,35.3,29.73,WNW,295,1.0,1.0,65,0.00,,,0.00,33,Wunderground v.1.15,2013-05-15 14:00:00,
2013-05-15 08:05:00,46.9,35.4,29.73,WNW,295,1.0,2.0,64,0.00,,,0.00,33,Wunderground v.1.15,2013-05-15 14:05:00,
2013-05-15 08:10:00,47.1,34.7,29.73,WNW,295,1.0,2.0,62,0.00,,,0.00,35,Wunderground v.1.15,2013-05-15 14:10:00,
2013-05-15 08:15:00,47.3,34.5,29.73,WNW,295,1.0,2.0,61,0.00,,,0.00,35,Wunderground v.1.15,2013-05-15 14:15:00,
2013-05-15 08:20:00,47.6,35.6,29.73,WNW,293,2.0,2.0,63,0.00,,,0.00,406,Wunderground v.1.15,2013-05-15 14:20:00,
2013-05-15 08:25:00,48.1,35.3,29.73,WNW,293,1.0,2.0,61,0.00,,,0.00,425,Wunderground v.1.15,2013-05-15 14:25:00,
2013-05-15 08:35:00,49.0,35.3,29.72,WNW,289,1.0,3.0,59,0.00,,,0.00,461,Wunderground v.1.15,2013-05-15 14:35:00,
2013-05-15 08:40:00,49.6,35.4,29.72,WNW,299,1.0,2.0,58,0.00,,,0.00,473,Wunderground v.1.15,2013-05-15 14:40:00,
2013-05-15 08:50:00,50.9,35.7,29.72,East,93,2.0,2.0,56,0.00,,,0.00,508,Wunderground v.1.15,2013-05-15 14:50:00,
2013-05-15 09:00:00,51.6,35.0,29.72,East,91,1.0,1.0,53,0.00,,,0.00,548,Wunderground v.1.15,2013-05-15 15:00:00,
2013-05-15 09:05:00,52.2,33.6,29.72,East,84,1.0,1.0,49,0.00,,,0.00,575,Wunderground v.1.15,2013-05-15 15:05:00,
2013-05-15 09:20:00,54.0,30.8,29.72,NNE,29,1.0,1.0,41,0.00,,,0.00,626,Wunderground v.1.15,2013-05-15 15:20:00,
2013-05-15 09:25:00,54.5,31.3,29.72,NNE,30,1.0,1.0,41,0.00,,,0.00,642,Wunderground v.1.15,2013-05-15 15:25:00,
2013-05-15 09:30:00,54.9,30.4,29.72,ENE,74,1.0,1.0,39,0.00,,,0.00,656,Wunderground v.1.15,2013-05-15 15:30:00,
2013-05-15 09:40:00,56.0,30.7,29.72,East,79,2.0,2.0,38,0.00,,,0.00,673,Wunderground v.1.15,2013-05-15 15:40:00,
2013-05-15 09:45:00,56.6,31.3,29.72,ENE,77,2.0,4.0,38,0.00,,,0.00,684,Wunderground v.1.15,2013-05-15 15:45:00,
2013-05-15 09:50:00,57.2,30.5,29.72,East,95,3.0,3.0,36,0.00,,,0.00,693,Wunderground v.1.15,2013-05-15 15:50:00,
2013-05-15 09:55:00,57.3,31.2,29.71,ENE,70,2.0,3.0,37,0.00,,,0.00,705,Wunderground v.1.15,2013-05-15 15:55:00,
2013-05-15 10:00:00,57.8,31.0,29.71,ENE,71,2.0,4.0,36,0.00,,,0.00,721,Wunderground v.1.15,2013-05-15 16:00:00,
2013-05-15 10:10:00,58.3,30.7,29.71,SSE,153,2.0,2.0,35,0.00,,,0.00,744,Wunderground v.1.15,2013-05-15 16:10:00,
2013-05-15 10:15:00,58.8,31.2,29.71,East,90,3.0,5.0,35,0.00,,,0.00,752,Wunderground v.1.15,2013-05-15 16:15:00,
2013-05-15 10:25:00,59.0,29.9,29.70,North,2,2.0,3.0,33,0.00,,,0.00,761,Wunderground v.1.15,2013-05-15 16:25:00,
2013-05-15 10:35:00,59.0,30.6,29.70,NNE,29,2.0,2.0,34,0.00,,,0.00,795,Wunderground v.1.15,2013-05-15 16:35:00,
2013-05-15 10:40:00,59.3,30.2,29.70,NW,324,2.0,2.0,33,0.00,,,0.00,807,Wunderground v.1.15,2013-05-15 16:40:00,
2013-05-15 10:45:00,59.8,32.1,29.70,ENE,65,2.0,4.0,35,0.00,,,0.00,817,Wunderground v.1.15,2013-05-15 16:45:00,
2013-05-15 10:50:00,60.0,31.5,29.70,ENE,64,2.0,2.0,34,0.00,,,0.00,824,Wunderground v.1.15,2013-05-15 16:50:00,
2013-05-15 10:55:00,60.6,32.8,29.69,ENE,69,2.0,4.0,35,0.00,,,0.00,838,Wunderground v.1.15,2013-05-15 16:55:00,
2013-05-15 11:05:00,61.5,32.1,29.69,ENE,60,1.0,4.0,33,0.00,,,0.00,861,Wunderground v.1.15,2013-05-15 17:05:00,
2013-05-15 11:10:00,62.0,32.5,29.69,ENE,69,1.0,1.0,33,0.00,,,0.00,872,Wunderground v.1.15,2013-05-15 17:10:00,
2013-05-15 11:20:00,62.7,32.4,29.69,NNE,23,2.0,2.0,32,0.00,,,0.00,889,Wunderground v.1.15,2013-05-15 17:20:00,
2013-05-15 11:25:00,63.0,31.9,29.69,NNE,28,2.0,2.0,31,0.00,,,0.00,896,Wunderground v.1.15,2013-05-15 17:25:00,
2013-05-15 11:40:00,63.8,32.6,29.68,NNE,22,2.0,2.0,31,0.00,,,0.00,914,Wunderground v.1.15,2013-05-15 17:40:00,
2013-05-15 11:55:00,65.0,33.6,29.67,ENE,69,2.0,7.0,31,0.00,,,0.00,886,Wunderground v.1.15,2013-05-15 17:55:00,
2013-05-15 12:00:00,65.3,33.9,29.67,East,91,2.0,3.0,31,0.00,,,0.00,939,Wunderground v.1.15,2013-05-15 18:00:00,
2013-05-15 12:05:00,65.8,33.5,29.67,NNE,18,2.0,3.0,30,0.00,,,0.00,956,Wunderground v.1.15,2013-05-15 18:05:00,
2013-05-15 12:15:00,66.6,35.0,29.67,East,88,2.0,3.0,31,0.00,,,0.00,969,Wunderground v.1.15,2013-05-15 18:15:00,
2013-05-15 12:30:00,67.2,35.5,29.66,ENE,68,2.0,3.0,31,0.00,,,0.00,979,Wunderground v.1.15,2013-05-15 18:30:00,
2013-05-15 12:35:00,67.6,34.2,29.66,NNE,27,2.0,3.0,29,0.00,,,0.00,981,Wunderground v.1.15,2013-05-15 18:35:00,
2013-05-15 12:45:00,68.2,35.6,29.65,NNW,330,2.0,3.0,30,0.00,,,0.00,984,Wunderground v.1.15,2013-05-15 18:45:00,
2013-05-15 12:50:00,68.4,35.7,29.65,East,101,2.0,2.0,30,0.00,,,0.00,993,Wunderground v.1.15,2013-05-15 18:50:00,
2013-05-15 12:55:00,69.1,36.3,29.65,North,9,2.0,4.0,30,0.00,,,0.00,1011,Wunderground v.1.15,2013-05-15 18:55:00,
2013-05-15 13:00:00,69.5,35.8,29.64,NW,326,3.0,3.0,29,0.00,,,0.00,1021,Wunderground v.1.15,2013-05-15 19:00:00,
2013-05-15 13:10:00,70.0,36.3,29.64,ENE,58,2.0,6.0,29,0.00,,,0.00,1021,Wunderground v.1.15,2013-05-15 19:10:00,
2013-05-15 13:15:00,70.2,36.4,29.64,East,87,3.0,6.0,29,0.00,,,0.00,947,Wunderground v.1.15,2013-05-15 19:15:00,
2013-05-15 13:20:00,70.9,37.9,29.63,ENE,74,4.0,4.0,30,0.00,,,0.00,916,Wunderground v.1.15,2013-05-15 19:20:00,
2013-05-15 13:25:00,71.3,38.2,29.63,ESE,104,4.0,4.0,30,0.00,,,0.00,993,Wunderground v.1.15,2013-05-15 19:25:00,
2013-05-15 13:30:00,71.2,37.3,29.63,East,86,2.0,2.0,29,0.00,,,0.00,944,Wunderground v.1.15,2013-05-15 19:30:00,
2013-05-15 13:40:00,70.9,37.9,29.62,ESE,105,3.0,3.0,30,0.00,,,0.00,972,Wunderground v.1.15,2013-05-15 19:40:00,
2013-05-15 13:45:00,71.1,37.2,29.62,ESE,112,4.0,4.0,29,0.00,,,0.00,803,Wunderground v.1.15,2013-05-15 19:45:00,
2013-05-15 13:55:00,70.7,37.7,29.62,East,88,4.0,7.0,30,0.00,,,0.00,751,Wunderground v.1.15,2013-05-15 19:55:00,
2013-05-15 14:10:00,71.1,36.3,29.61,ESE,108,4.0,4.0,28,0.00,,,0.00,933,Wunderground v.1.15,2013-05-15 20:10:00,
2013-05-15 14:15:00,71.0,37.1,29.62,ENE,74,3.0,4.0,29,0.00,,,0.00,870,Wunderground v.1.15,2013-05-15 20:15:00,
2013-05-15 14:25:00,71.6,38.5,29.61,ENE,64,4.0,4.0,30,0.00,,,0.00,796,Wunderground v.1.15,2013-05-15 20:25:00,
2013-05-15 14:30:00,71.3,37.4,29.61,ENE,70,4.0,4.0,29,0.00,,,0.00,693,Wunderground v.1.15,2013-05-15 20:30:00,
2013-05-15 14:35:00,71.3,38.2,29.61,NE,41,3.0,4.0,30,0.00,,,0.00,603,Wunderground v.1.15,2013-05-15 20:35:00,
2013-05-15 14:40:00,70.3,37.4,29.61,East,85,2.0,2.0,30,0.00,,,0.00,566,Wunderground v.1.15,2013-05-15 20:40:00,
2013-05-15 14:45:00,69.5,36.7,29.60,NNE,16,2.0,2.0,30,0.00,,,0.00,636,Wunderground v.1.15,2013-05-15 20:45:00,
2013-05-15 14:50:00,69.8,36.9,29.61,ENE,62,2.0,3.0,30,0.00,,,0.00,691,Wunderground v.1.15,2013-05-15 20:50:00,
2013-05-15 14:55:00,70.6,38.5,29.60,SSE,156,3.0,3.0,31,0.00,,,0.00,846,Wunderground v.1.15,2013-05-15 20:55:00,
2013-05-15 15:00:00,70.9,37.0,29.60,East,93,3.0,3.0,29,0.00,,,0.00,738,Wunderground v.1.15,2013-05-15 21:00:00,
2013-05-15 15:05:00,71.1,38.1,29.60,ENE,65,4.0,7.0,30,0.00,,,0.00,712,Wunderground v.1.15,2013-05-15 21:05:00,
2013-05-15 15:10:00,70.9,37.9,29.60,ENE,77,2.0,4.0,30,0.00,,,0.00,555,Wunderground v.1.15,2013-05-15 21:10:00,
2013-05-15 15:16:00,70.4,37.5,29.60,WNW,289,0.0,4.0,30,0.00,,,0.00,745,Wunderground v.1.15,2013-05-15 21:16:00,
2013-05-15 15:21:00,70.9,37.0,29.59,WSW,252,2.0,4.0,29,0.00,,,0.00,668,Wunderground v.1.15,2013-05-15 21:21:00,
2013-05-15 15:26:00,70.8,37.0,29.59,ENE,63,2.0,4.0,29,0.00,,,0.00,673,Wunderground v.1.15,2013-05-15 21:26:00,
2013-05-15 15:31:00,70.5,37.6,29.59,ESE,116,3.0,7.0,30,0.00,,,0.00,726,Wunderground v.1.15,2013-05-15 21:31:00,
2013-05-15 15:36:00,71.1,38.1,29.59,South,171,2.0,7.0,30,0.00,,,0.00,735,Wunderground v.1.15,2013-05-15 21:36:00,
2013-05-15 15:41:00,71.4,38.3,29.59,North,350,2.0,3.0,30,0.00,,,0.00,893,Wunderground v.1.15,2013-05-15 21:41:00,
2013-05-15 15:46:00,72.1,38.1,29.59,NE,39,1.0,4.0,29,0.00,,,0.00,745,Wunderground v.1.15,2013-05-15 21:46:00,
2013-05-15 15:51:00,72.2,37.3,29.58,NE,37,1.0,3.0,28,0.00,,,0.00,352,Wunderground v.1.15,2013-05-15 21:51:00,
2013-05-15 15:57:00,72.3,37.4,29.59,North,355,1.0,7.0,28,0.00,,,0.00,311,Wunderground v.1.15,2013-05-15 21:57:00,
2013-05-15 16:02:00,71.9,37.0,29.58,North,352,1.0,3.0,28,0.00,,,0.00,410,Wunderground v.1.15,2013-05-15 22:02:00,
2013-05-15 16:07:00,71.4,37.5,29.59,NNE,29,1.0,4.0,29,0.00,,,0.00,425,Wunderground v.1.15,2013-05-15 22:07:00,
2013-05-15 16:12:00,71.2,37.3,29.59,NNW,345,0.0,4.0,29,0.00,,,0.00,538,Wunderground v.1.15,2013-05-15 22:12:00,
2013-05-15 16:17:00,71.3,37.4,29.58,ESE,120,4.0,4.0,29,0.00,,,0.00,548,Wunderground v.1.15,2013-05-15 22:17:00,
2013-05-15 16:23:00,71.1,38.9,29.58,NE,53,4.0,4.0,31,0.00,,,0.00,578,Wunderground v.1.15,2013-05-15 22:23:00,
2013-05-15 16:28:00,71.2,37.3,29.58,NNE,28,0.0,5.0,29,0.00,,,0.00,552,Wunderground v.1.15,2013-05-15 22:28:00,
2013-05-15 16:33:00,71.3,38.2,29.58,ENE,77,7.0,8.0,30,0.00,,,0.00,512,Wunderground v.1.15,2013-05-15 22:33:00,
2013-05-15 16:38:00,70.0,37.1,29.58,ENE,66,1.0,8.0,30,0.00,,,0.00,397,Wunderground v.1.15,2013-05-15 22:38:00,
2013-05-15 16:43:00,69.9,37.0,29.58,East,87,3.0,6.0,30,0.00,,,0.00,234,Wunderground v.1.15,2013-05-15 22:43:00,
2013-05-15 16:49:00,69.7,36.0,29.58,East,86,0.0,6.0,29,0.00,,,0.00,234,Wunderground v.1.15,2013-05-15 22:49:00,
2013-05-15 16:54:00,69.0,36.3,29.58,ENE,71,0.0,3.0,30,0.00,,,0.00,225,Wunderground v.1.15,2013-05-15 22:54:00,
2013-05-15 16:59:00,68.5,36.7,29.58,East,85,4.0,4.0,31,0.00,,,0.00,188,Wunderground v.1.15,2013-05-15 22:59:00,
2013-05-15 17:04:00,68.1,36.3,29.59,East,81,2.0,6.0,31,0.00,,,0.00,146,Wunderground v.1.15,2013-05-15 23:04:00,
2013-05-15 17:09:00,67.7,36.8,29.59,ENE,66,2.0,6.0,32,0.00,,,0.00,135,Wunderground v.1.15,2013-05-15 23:09:00,
2013-05-15 17:14:00,67.5,36.6,29.59,ENE,66,2.0,4.0,32,0.00,,,0.00,146,Wunderground v.1.15,2013-05-15 23:14:00,
2013-05-15 17:19:00,67.0,37.7,29.58,ENE,59,5.0,6.0,34,0.00,,,0.00,167,Wunderground v.1.15,2013-05-15 23:19:00,
2013-05-15 17:25:00,67.0,36.9,29.58,East,82,3.0,6.0,33,0.00,,,0.00,174,Wunderground v.1.15,2013-05-15 23:25:00,
2013-05-15 17:30:00,66.8,37.5,29.58,ENE,60,2.0,3.0,34,0.00,,,0.00,204,Wunderground v.1.15,2013-05-15 23:30:00,
2013-05-15 17:35:00,66.6,36.6,29.58,North,351,3.0,4.0,33,0.00,,,0.00,149,Wunderground v.1.15,2013-05-15 23:35:00,
2013-05-15 17:40:00,66.0,36.8,29.58,NNE,22,0.0,2.0,34,0.00,,,0.00,125,Wunderground v.1.15,2013-05-15 23:40:00,
2013-05-15 17:45:00,65.7,37.3,29.57,NNE,22,0.0,2.0,35,0.00,,,0.00,165,Wunderground v.1.15,2013-05-15 23:45:00,
2013-05-15 17:50:00,65.6,36.5,29.57,NNE,21,2.0,2.0,34,0.00,,,0.00,137,Wunderground v.1.15,2013-05-15 23:50:00,
2013-05-15 17:56:00,65.8,36.6,29.57,NNE,16,0.0,3.0,34,0.00,,,0.00,125,Wunderground v.1.15,2013-05-15 23:56:00,
2013-05-15 18:01:00,66.0,36.8,29.57,NNE,14,0.0,1.0,34,0.00,,,0.00,128,Wunderground v.1.15,2013-05-16 00:01:00,
2013-05-15 18:06:00,66.1,37.6,29.56,NNE,14,0.0,1.0,35,0.00,,,0.00,107,Wunderground v.1.15,2013-05-16 00:06:00,
2013-05-15 18:12:00,66.3,37.8,29.56,NNE,14,0.0,1.0,35,0.00,,,0.00,251,Wunderground v.1.15,2013-05-16 00:12:00,
2013-05-15 18:17:00,66.6,38.1,29.55,NNE,14,0.0,2.0,35,0.00,,,0.00,350,Wunderground v.1.15,2013-05-16 00:17:00,
2013-05-15 18:23:00,67.2,37.9,29.55,NNE,21,1.0,3.0,34,0.00,,,0.00,200,Wunderground v.1.15,2013-05-16 00:23:00,
2013-05-15 18:28:00,67.4,38.8,29.54,North,8,0.0,4.0,35,0.00,,,0.00,158,Wunderground v.1.15,2013-05-16 00:28:00,
2013-05-15 18:33:00,67.6,38.2,29.54,NNW,332,1.0,4.0,34,0.00,,,0.00,148,Wunderground v.1.15,2013-05-16 00:33:00,
2013-05-15 18:38:00,67.5,38.1,29.54,NNW,332,0.0,4.0,34,0.00,,,0.00,135,Wunderground v.1.15,2013-05-16 00:38:00,
2013-05-15 18:44:00,67.3,38.0,29.54,NNW,334,2.0,3.0,34,0.00,,,0.00,114,Wunderground v.1.15,2013-05-16 00:44:00,
2013-05-15 18:49:00,67.2,38.6,29.54,NNW,334,0.0,3.0,35,0.00,,,0.00,100,Wunderground v.1.15,2013-05-16 00:49:00,
2013-05-15 18:54:00,67.1,37.8,29.54,NNW,334,0.0,1.0,34,0.00,,,0.00,132,Wunderground v.1.15,2013-05-16 00:54:00,
2013-05-15 18:59:00,67.1,38.5,29.54,NNW,334,0.0,2.0,35,0.00,,,0.00,171,Wunderground v.1.15,2013-05-16 00:59:00,
2013-05-15 19:05:00,67.0,39.1,29.54,NNW,334,0.0,0.0,36,0.00,,,0.00,151,Wunderground v.1.15,2013-05-16 01:05:00,
2013-05-15 19:11:00,67.0,38.4,29.54,NNW,334,0.0,0.0,35,0.00,,,0.00,98,Wunderground v.1.15,2013-05-16 01:11:00,
2013-05-15 19:16:00,66.8,37.5,29.54,NW,318,2.0,5.0,34,0.00,,,0.00,88,Wunderground v.1.15,2013-05-16 01:16:00,
2013-05-15 19:22:00,66.3,37.1,29.54,NNW,340,1.0,4.0,34,0.00,,,0.00,65,Wunderground v.1.15,2013-05-16 01:22:00,
2013-05-15 19:27:00,65.9,37.5,29.54,NW,311,1.0,4.0,35,0.00,,,0.00,81,Wunderground v.1.15,2013-05-16 01:27:00,
2013-05-15 19:32:00,65.5,37.1,29.54,NW,322,2.0,4.0,35,0.00,,,0.00,116,Wunderground v.1.15,2013-05-16 01:32:00,
2013-05-15 19:37:00,65.2,36.8,29.54,NNW,337,2.0,4.0,35,0.00,,,0.00,102,Wunderground v.1.15,2013-05-16 01:37:00,
2013-05-15 19:42:00,64.9,37.3,29.54,NW,310,3.0,3.0,36,0.00,,,0.00,83,Wunderground v.1.15,2013-05-16 01:42:00,
2013-05-15 19:48:00,64.4,36.8,29.54,NNE,14,2.0,5.0,36,0.00,,,0.00,62,Wunderground v.1.15,2013-05-16 01:48:00,
2013-05-15 19:53:00,64.2,36.7,29.55,NNW,329,0.0,4.0,36,0.00,,,0.00,44,Wunderground v.1.15,2013-05-16 01:53:00,
2013-05-15 19:58:00,63.9,36.4,29.55,NNW,340,3.0,4.0,36,0.00,,,0.00,37,Wunderground v.1.15,2013-05-16 01:58:00,
2013-05-15 20:03:00,63.8,35.6,29.56,NW,325,0.0,2.0,35,0.00,,,0.00,11,Wunderground v.1.15,2013-05-16 02:03:00,
2013-05-15 20:08:00,63.5,35.3,29.56,NNW,343,0.0,4.0,35,0.00,,,0.00,5,Wunderground v.1.15,2013-05-16 02:08:00,
2013-05-15 20:13:00,63.4,35.2,29.55,NNW,348,2.0,5.0,35,0.00,,,0.00,5,Wunderground v.1.15,2013-05-16 02:13:00,
2013-05-15 20:26:00,63.0,34.9,29.56,NW,318,1.0,1.0,35,0.00,,,0.00,0,Wunderground v.1.15,2013-05-16 02:26:00,
2013-05-15 20:31:00,62.8,35.4,29.56,NNW,331,0.0,2.0,36,0.00,,,0.00,0,Wunderground v.1.15,2013-05-16 02:31:00,
2013-05-15 20:36:00,62.7,35.3,29.57,NNW,343,0.0,1.0,36,0.00,,,0.00,0,Wunderground v.1.15,2013-05-16 02:36:00,
2013-05-15 20:46:00,62.5,35.2,29.57,NNW,335,0.0,1.0,36,0.00,,,0.00,0,Wunderground v.1.15,2013-05-16 02:46:00,
2013-05-15 20:51:00,62.5,35.2,29.57,NW,316,6.0,8.0,36,0.00,,,0.00,0,Wunderground v.1.15,2013-05-16 02:51:00,
2013-05-15 20:57:00,61.9,37.3,29.57,West,279,9.0,9.0,40,0.00,,,0.00,0,Wunderground v.1.15,2013-05-16 02:57:00,
2013-05-15 21:02:00,60.8,38.7,29.57,WNW,299,21.0,23.0,44,0.00,,,0.00,0,Wunderground v.1.15,2013-05-16 03:02:00,
2013-05-15 21:07:00,59.6,38.2,29.58,NW,321,11.0,25.0,45,0.00,,,0.00,0,Wunderground v.1.15,2013-05-16 03:07:00,
2013-05-15 21:12:00,59.1,38.3,29.59,NNW,335,15.0,16.0,46,0.00,,,0.00,0,Wunderground v.1.15,2013-05-16 03:12:00,
2013-05-15 21:18:00,58.8,39.1,29.59,WNW,295,21.0,21.0,48,0.00,,,0.00,0,Wunderground v.1.15,2013-05-16 03:18:00,
2013-05-15 21:23:00,58.4,38.8,29.59,NW,309,18.0,24.0,48,0.00,,,0.00,0,Wunderground v.1.15,2013-05-16 03:23:00,
2013-05-15 21:28:00,58.2,38.1,29.59,WNW,302,16.0,24.0,47,0.00,,,0.00,0,Wunderground v.1.15,2013-05-16 03:28:00,
2013-05-15 21:33:00,58.2,38.6,29.59,NNW,328,13.0,18.0,48,0.00,,,0.00,0,Wunderground v.1.15,2013-05-16 03:33:00,
2013-05-15 21:38:00,58.3,38.7,29.60,WNW,289,15.0,19.0,48,0.00,,,0.00,0,Wunderground v.1.15,2013-05-16 03:38:00,
2013-05-15 21:43:00,58.4,37.7,29.60,NW,322,10.0,16.0,46,0.00,,,0.00,0,Wunderground v.1.15,2013-05-16 03:43:00,
2013-05-15 21:48:00,58.6,38.4,29.61,NW,311,10.0,16.0,47,0.00,,,0.00,0,Wunderground v.1.15,2013-05-16 03:48:00,
2013-05-15 21:53:00,58.6,38.4,29.61,WNW,285,10.0,13.0,47,0.00,,,0.00,0,Wunderground v.1.15,2013-05-16 03:53:00,
2013-05-15 21:58:00,58.5,38.9,29.62,West,272,9.0,14.0,48,0.00,,,0.00,0,Wunderground v.1.15,2013-05-16 03:58:00,
2013-05-15 22:01:00,58.4,38.8,29.62,WNW,293,7.0,11.0,48,0.00,,,0.00,0,Wunderground v.1.15,2013-05-16 04:01:00,
2013-05-15 22:06:00,58.1,39.0,29.63,WNW,300,10.0,12.0,49,0.00,,,0.00,0,Wunderground v.1.15,2013-05-16 04:06:00,
2013-05-15 22:12:00,57.6,39.6,29.64,WNW,287,11.0,19.0,51,0.00,,,0.00,0,Wunderground v.1.15,2013-05-16 04:12:00,
2013-05-15 22:17:00,56.9,39.4,29.64,West,276,11.0,19.0,52,0.00,,,0.00,0,Wunderground v.1.15,2013-05-16 04:17:00,
2013-05-15 22:22:00,56.2,40.7,29.65,WSW,245,14.0,16.0,56,0.00,,,0.01,0,Wunderground v.1.15,2013-05-16 04:22:00,
2013-05-15 22:27:00,54.9,41.7,29.65,WNW,282,11.0,16.0,61,0.00,,,0.01,0,Wunderground v.1.15,2013-05-16 04:27:00,
2013-05-15 22:32:00,53.8,41.5,29.65,West,264,10.0,14.0,63,0.06,,,0.02,0,Wunderground v.1.15,2013-05-16 04:32:00,
2013-05-15 22:37:00,52.9,42.2,29.65,WNW,282,7.0,14.0,67,0.06,,,0.02,0,Wunderground v.1.15,2013-05-16 04:37:00,
2013-05-15 22:42:00,52.3,42.4,29.64,West,273,3.0,8.0,69,0.07,,,0.03,0,Wunderground v.1.15,2013-05-16 04:42:00,
2013-05-15 22:47:00,51.8,42.7,29.64,South,185,4.0,8.0,71,0.07,,,0.03,0,Wunderground v.1.15,2013-05-16 04:47:00,
2013-05-15 22:52:00,51.3,43.3,29.64,SSW,212,1.0,4.0,74,0.05,,,0.03,0,Wunderground v.1.15,2013-05-16 04:52:00,
2013-05-15 22:57:00,51.0,43.0,29.63,West,281,3.0,7.0,74,0.04,,,0.03,0,Wunderground v.1.15,2013-05-16 04:57:00,
2013-05-15 23:02:00,50.8,42.5,29.62,SSW,202,2.0,5.0,73,0.00,,,0.03,0,Wunderground v.1.15,2013-05-16 05:02:00,
2013-05-15 23:07:00,51.0,41.6,29.62,South,175,4.0,8.0,70,0.00,,,0.03,0,Wunderground v.1.15,2013-05-16 05:07:00,
2013-05-15 23:12:00,51.0,41.9,29.61,SSW,203,2.0,5.0,71,0.00,,,0.03,0,Wunderground v.1.15,2013-05-16 05:12:00,
2013-05-15 23:17:00,50.9,41.8,29.61,WSW,251,5.0,5.0,71,0.00,,,0.03,0,Wunderground v.1.15,2013-05-16 05:17:00,
2013-05-15 23:22:00,50.8,42.1,29.60,WSW,237,2.0,7.0,72,0.00,,,0.03,0,Wunderground v.1.15,2013-05-16 05:22:00,
2013-05-15 23:27:00,50.7,42.4,29.60,WSW,237,3.0,7.0,73,0.00,,,0.03,0,Wunderground v.1.15,2013-05-16 05:27:00,
2013-05-15 23:32:00,50.5,42.5,29.60,WSW,243,0.0,4.0,74,0.00,,,0.03,0,Wunderground v.1.15,2013-05-16 05:32:00,
2013-05-15 23:37:00,50.4,42.4,29.60,WSW,243,4.0,4.0,74,0.00,,,0.03,0,Wunderground v.1.15,2013-05-16 05:37:00,
2013-05-15 23:42:00,50.1,42.1,29.60,WSW,254,3.0,5.0,74,0.00,,,0.03,0,Wunderground v.1.15,2013-05-16 05:42:00,
2013-05-15 23:47:00,50.0,42.4,29.60,WSW,254,0.0,5.0,75,0.00,,,0.03,0,Wunderground v.1.15,2013-05-16 05:47:00,
2013-05-15 23:52:00,49.8,41.8,29.60,WSW,254,3.0,3.0,74,0.00,,,0.03,0,Wunderground v.1.15,2013-05-16 05:52:00,
2013-05-15 23:58:00,49.6,41.7,29.60,WSW,254,4.0,5.0,74,0.00,,,0.03,0,Wunderground v.1.15,2013-05-16 05:58:00,